Temp
88 90 88 90 86 86 83 83 81 80 79 74 73 72 73 74 76 78 80 81 82 85 78 77 76 75 74 74 73 71 71 71 71 69 68 68 70 70 70 71 71 73 75
86 87 87 88 85 85 83 81 81 79 80 80 79 76 74 74 77 79 79 81 81 82 79 77 76 74 72 72 71 72 72 71 70 69 67 65 67 68 69 69 71 72 73
86 85 86 86 84 84 83 80 80 80 80 78 76 74 74 74 75 76 77 80 81 82 81 77 76 74 73 72 70 70 72 70 71 70 68 63 62 63 66 68 69 70 70
89 87 87 85 83 84 86 83 80 79 79 78 77 74 74 74 74 76 78 79 83 83 82 80 77 76 73 71 72 72 69 71 69 71 73 70 67 63 63 66 67 68 70
90 88 88 88 86 86 85 84 80 79 79 79 79 78 72 74 75 76 77 77 78 81 82 81 79 76 73 73 72 71 71 70 71 70 69 69 67 67 65 64 66 69 69
90 90 90 90 87 86 86 85 81 79 79 79 78 77 74 74 73 74 75 76 76 79 80 81 79 78 75 73 72 73 70 69 71 72 72 68 67 66 66 66 67 67 69
90 89 87 86 86 84 84 84 82 80 80 79 78 77 76 75 75 75 75 75 75 75 77 78 77 77 75 74 71 70 69 69 71 73 72 72 70 67 66 66 66 67 68
91 90 88 87 87 85 84 84 81 81 81 80 79 79 78 78 76 77 76 75 76 78 77 79 78 78 76 73 72 70 71 71 71 74 74 71 69 68 66 67 66 65 67
86 88 89 88 88 86 85 84 82 82 81 81 81 80 81 81 79 77 76 77 76 79 77 77 76 75 74 74 72 70 69 73 73 74 74 73 70 70 69 67 68 67 64
85 88 88 86 89 89 86 85 85 83 82 82 82 81 81 81 81 76 76 74 73 75 76 74 73 71 72 73 72 69 70 68 69 74 74 73 68 68 67 67 67 67 67
82 80 81 83 87 89 87 86 85 83 83 83 83 82 79 77 73 71 71 72 73 74 75 74 74 72 70 69 71 72 69 68 71 73 72 71 69 70 67 68 68 69 69
77 78 78 77 76 75 85 87 87 83 84 83 81 77 76 73 71 69 72 73 72 72 72 74 72 71 70 69 69 72 74 73 73 74 70 71 72 71 71 70 70 70 70
77 77 77 76 74 73 71 70 75 83 83 76 73 71 70 71 70 70 69 70 69 69 70 69 71 69 69 71 70 70 70 69 70 71 70 71 69 71 72 71 70 68 71
73 73 72 73 72 71 71 69 69 71 72 71 69 68 69 70 69 70 69 69 68 68 68 68 67 67 67 67 67 67 67 67 68 69 69 68 68 68 70 69 67 66 65
72 71 70 72 72 71 70 70 68 67 68 68 66 64 66 67 68 68 67 65 67 69 68 68 67 67 67 67 66 67 67 66 67 68 69 70 70 69 68 66 65 65 63
72 71 70 70 70 70 70 68 68 67 66 64 63 64 66 67 66 65 64 65 66 66 67 67 67 66 67 64 65 64 64 66 67 68 68 69 70 69 68 68 67 67 63
70 68 68 68 70 69 69 67 67 67 66 65 65 65 65 64 65 65 65 65 66 66 67 67 67 63 63 64 65 68 66 67 66 67 66 69 72 67 67 67 67 67 67
67 66 66 67 70 70 69 68 67 66 65 65 64 63 64 65 65 64 64 64 65 66 67 66 65 63 63 62 63 65 63 64 65 65 64 63 62 62 64 66 65 65 67
64 64 67 68 69 71 69 68 67 66 66 65 64 64 64 63 64 64 64 65 65 64 65 65 64 62 62 60 61 62 61 61 60 60 61 60 59 61 61 60 59 59 62
63 66 68 69 68 69 69 67 66 67 66 65 65 66 66 65 64 64 63 63 64 63 64 64 63 62 61 59 59 61 61 58 59 57 58 61 59 59 59 57 55 54 56
61 64 62 59 59 60 63 67 67 65 66 66 67 65 65 64 63 62 62 62 62 62 61 62 62 61 60 59 58 59 59 58 58 57 57 58 60 56 55 56 53 54 55
62 62 61 59 58 58 59 64 65 65 65 67 65 63 63 66 63 61 60 60 59 59 59 59 59 61 59 58 57 57 58 60 57 56 55 55 55 53 53 54 55 55 56
61 61 59 59 61 59 65 64 64 65 64 63 62 63 63 62 61 59 59 59 58 57 57 56 56 58 57 57 58 58 58 59 56 55 56 56 54 53 54 55 55 56 55
57 59 59 59 58 57 62 66 65 65 63 61 61 60 59 58 60 59 58 57 55 54 55 55 55 55 56 56 56 56 55 56 55 55 52 56 56 56 56 57 58 57 55
59 58 57 58 58 59 62 65 65 65 62 61 60 57 58 61 58 58 57 58 56 56 54 53 54 53 52 54 53 52 53 51 50 50 50 51 52 53 53 53 55 57 56
63 62 61 62 63 64 63 62 62 63 62 61 61 59 58 58 58 57 57 54 53 51 50 52 54 52 51 48 47 44 43 45 45 50 49 48 50 51 50 50 50 50 52
MSLP
1005.09 1005.51 1005.83 1006.41 1007.24 1007.92 1008.65 1009.36 1010.08 1010.67 1011.30 1012.04 1012.56 1012.95 1013.17 1013.21 1013.23 1013.00 1013.07 1013.20 1013.17 1013.31 1013.90 1013.87 1014.15 1014.31 1014.62 1015.04 1015.25 1015.40 1015.53 1016.11 1015.98 1016.14 1016.70 1016.40 1016.13 1016.08 1015.70 1015.54 1015.67 1015.50 1015.78
1004.84 1005.02 1005.38 1005.80 1006.56 1007.30 1008.08 1008.83 1009.43 1010.17 1010.71 1011.30 1011.89 1012.33 1012.66 1012.77 1012.79 1012.68 1012.65 1012.70 1012.79 1012.87 1013.29 1013.61 1013.95 1014.34 1014.71 1014.92 1015.13 1015.39 1015.64 1015.90 1015.77 1015.92 1016.43 1016.54 1016.11 1015.75 1015.91 1016.03 1015.65 1015.56 1015.64
1003.72 1004.53 1004.78 1005.17 1005.96 1006.72 1007.39 1008.21 1008.83 1009.48 1010.19 1010.84 1011.58 1012.20 1012.55 1012.67 1012.78 1012.71 1012.67 1012.43 1012.32 1012.53 1012.81 1013.10 1013.51 1013.81 1014.23 1014.61 1014.79 1015.09 1015.40 1015.76 1015.56 1015.69 1015.90 1016.40 1016.26 1016.14 1015.82 1015.74 1015.55 1015.90 1015.98
1003.17 1003.78 1004.50 1004.83 1005.22 1005.58 1006.47 1007.40 1008.19 1008.93 1009.64 1010.31 1011.06 1011.58 1011.93 1012.42 1012.36 1012.36 1012.23 1012.08 1011.91 1012.12 1012.26 1012.51 1012.84 1013.33 1013.92 1014.31 1014.28 1014.75 1015.18 1015.54 1015.51 1015.43 1015.09 1014.94 1015.39 1016.00 1016.02 1015.52 1015.26 1016.23 1016.17
1002.16 1002.56 1003.44 1003.72 1004.20 1005.27 1005.65 1006.66 1007.57 1008.31 1008.90 1009.63 1010.16 1010.92 1011.47 1011.76 1011.96 1012.09 1012.21 1012.02 1011.88 1011.69 1011.78 1011.88 1012.23 1013.04 1013.62 1013.85 1014.01 1014.36 1014.56 1015.02 1014.97 1014.89 1014.90 1015.05 1015.37 1015.65 1015.89 1015.99 1015.44 1015.27 1015.60
1001.32 1001.88 1002.43 1003.61 1004.28 1005.06 1005.84 1006.36 1007.07 1007.75 1008.27 1008.88 1009.60 1010.16 1010.71 1011.26 1011.87 1012.07 1012.05 1011.88 1011.73 1011.72 1011.72 1011.57 1011.82 1012.60 1013.16 1013.28 1013.54 1013.74 1014.12 1014.26 1014.35 1014.47 1014.33 1014.81 1015.10 1015.51 1015.59 1015.96 1016.08 1016.04 1016.09
1000.36 1001.04 1002.24 1003.16 1003.86 1004.46 1005.07 1005.89 1006.60 1007.15 1007.73 1008.38 1009.03 1009.54 1009.87 1010.55 1011.17 1011.38 1011.60 1011.63 1011.57 1011.60 1011.39 1011.41 1011.82 1012.27 1012.49 1012.99 1013.66 1014.10 1014.07 1013.96 1013.88 1013.80 1013.67 1013.68 1014.16 1014.60 1015.07 1015.33 1015.74 1016.06 1016.12
999.54 1000.30 1001.23 1002.12 1002.73 1003.51 1004.38 1005.21 1005.98 1006.61 1007.07 1007.58 1008.21 1008.83 1009.20 1009.64 1010.30 1010.60 1010.85 1011.09 1011.28 1011.21 1011.21 1011.38 1011.65 1011.77 1011.92 1012.40 1012.74 1013.03 1013.28 1013.72 1013.43 1013.12 1013.07 1013.35 1013.61 1013.73 1014.14 1014.83 1015.41 1016.00 1015.74
999.89 1000.34 1000.91 1001.61 1002.28 1003.18 1003.60 1004.09 1005.16 1006.00 1006.59 1006.97 1007.49 1008.16 1008.68 1009.09 1009.45 1009.93 1010.42 1010.73 1011.25 1011.39 1011.30 1011.25 1011.37 1011.47 1011.68 1011.92 1012.22 1012.17 1012.16 1013.06 1012.96 1012.86 1012.68 1012.79 1012.96 1013.18 1013.79 1014.12 1014.41 1014.82 1015.71
999.95 1000.27 1000.97 1001.51 1002.13 1002.47 1003.06 1004.25 1004.77 1005.20 1005.78 1006.55 1006.80 1007.26 1007.85 1008.59 1009.25 1010.26 1010.98 1011.38 1011.64 1011.52 1011.33 1011.26 1011.11 1011.30 1011.47 1011.96 1012.06 1012.51 1012.39 1012.87 1012.71 1012.33 1012.20 1012.42 1012.93 1013.04 1013.19 1013.63 1014.09 1014.28 1014.40
1002.16 1002.26 1002.37 1002.27 1002.25 1002.50 1003.14 1003.87 1004.35 1004.94 1005.50 1005.95 1006.26 1006.94 1008.04 1009.04 1009.68 1010.11 1010.26 1010.46 1010.56 1011.85 1011.31 1010.33 1009.86 1010.54 1011.72 1011.72 1012.13 1012.35 1012.41 1012.78 1012.48 1012.12 1012.02 1011.97 1012.46 1012.48 1012.84 1013.75 1014.13 1014.17 1013.80
1002.99 1003.24 1003.59 1003.89 1003.63 1004.00 1004.02 1003.64 1004.02 1004.63 1005.00 1005.66 1006.75 1007.57 1007.95 1008.80 1009.42 1009.48 1009.21 1008.88 1009.95 1010.15 1010.63 1011.04 1011.00 1010.55 1010.50 1011.58 1011.50 1011.51 1011.61 1011.68 1011.68 1011.45 1012.11 1011.97 1012.11 1012.06 1012.67 1013.27 1013.44 1013.27 1013.31
1004.06 1003.22 1004.08 1004.15 1004.57 1004.79 1005.27 1006.04 1005.58 1004.81 1005.33 1006.08 1006.80 1007.45 1007.87 1008.57 1009.03 1009.18 1009.15 1009.56 1010.41 1010.63 1010.47 1011.12 1010.76 1009.65 1010.66 1011.42 1011.64 1011.55 1011.84 1012.01 1011.94 1011.73 1011.99 1012.15 1012.43 1012.30 1011.95 1012.51 1012.96 1013.05 1013.08
1004.99 1004.78 1005.38 1005.13 1004.43 1005.07 1005.47 1005.76 1006.20 1006.50 1005.84 1006.23 1007.06 1007.85 1008.11 1008.52 1008.86 1008.88 1009.54 1010.34 1010.75 1011.12 1011.40 1011.38 1010.86 1009.77 1010.71 1011.89 1012.21 1012.57 1012.61 1012.67 1012.34 1012.07 1011.97 1012.59 1012.92 1012.88 1012.31 1012.70 1013.01 1013.27 1013.42
1004.67 1004.90 1005.75 1004.59 1003.53 1003.54 1005.10 1005.36 1006.42 1006.57 1007.37 1007.16 1007.43 1007.93 1008.21 1008.78 1009.72 1010.06 1010.34 1010.97 1011.16 1011.28 1011.51 1010.97 1011.80 1012.05 1011.27 1011.89 1012.26 1012.57 1013.16 1012.71 1012.82 1012.54 1012.68 1012.59 1012.48 1012.62 1012.47 1012.87 1013.02 1013.28 1013.34
1005.52 1005.32 1005.36 1005.12 1005.02 1004.47 1005.06 1005.00 1005.99 1008.29 1008.02 1007.61 1008.46 1008.71 1008.53 1009.09 1009.97 1010.55 1011.14 1011.30 1011.23 1011.25 1011.04 1011.51 1011.69 1012.06 1011.69 1011.82 1012.02 1012.32 1013.50 1012.76 1012.47 1012.57 1012.60 1012.80 1013.02 1012.80 1012.61 1012.88 1013.12 1013.17 1013.33
1006.18 1005.90 1006.27 1006.27 1005.68 1005.26 1006.06 1006.29 1007.34 1008.22 1009.12 1009.12 1008.39 1008.73 1008.74 1009.75 1010.54 1010.63 1011.02 1010.65 1011.06 1011.41 1011.24 1011.65 1012.09 1012.68 1012.55 1012.54 1012.97 1013.34 1013.15 1012.48 1012.74 1012.38 1012.59 1012.88 1013.16 1013.39 1013.52 1013.36 1013.36 1013.38 1013.39
1007.23 1007.49 1007.45 1007.35 1007.43 1007.08 1007.13 1007.24 1007.52 1008.16 1008.56 1009.49 1009.44 1009.50 1009.58 1009.91 1010.31 1010.45 1010.70 1010.82 1011.11 1011.36 1011.45 1011.73 1012.24 1012.88 1012.94 1012.51 1012.92 1013.05 1013.06 1012.98 1012.87 1012.83 1012.79 1013.22 1013.66 1013.79 1013.77 1013.76 1013.86 1013.87 1013.43
1008.34 1008.00 1007.53 1007.38 1007.71 1007.99 1008.29 1008.55 1008.57 1008.13 1008.01 1009.14 1009.36 1009.27 1009.88 1010.37 1010.47 1010.63 1010.91 1011.17 1011.11 1011.25 1011.51 1011.88 1012.18 1012.50 1013.15 1013.26 1013.21 1013.19 1013.26 1013.17 1013.54 1013.25 1013.31 1013.86 1014.11 1014.28 1014.17 1014.32 1014.38 1014.30 1013.99
1008.63 1007.90 1007.21 1007.22 1007.68 1007.96 1008.21 1008.57 1009.06 1008.19 1007.68 1008.08 1008.80 1009.26 1010.18 1010.30 1010.10 1010.37 1010.42 1011.04 1011.56 1011.89 1012.04 1011.98 1012.16 1012.35 1013.13 1013.47 1013.40 1013.24 1013.36 1013.50 1013.77 1013.87 1014.24 1014.27 1014.17 1014.26 1014.24 1014.23 1014.51 1014.28 1014.18
1008.74 1007.75 1007.21 1007.28 1007.41 1007.36 1008.70 1007.01 1006.34 1007.29 1007.46 1007.50 1008.36 1008.83 1010.49 1010.30 1010.15 1010.46 1010.48 1010.87 1011.84 1011.91 1012.56 1012.64 1012.58 1012.61 1012.88 1013.35 1013.27 1013.28 1013.57 1013.82 1014.13 1014.31 1014.42 1014.32 1014.40 1014.29 1014.31 1014.32 1014.33 1014.25 1013.99
1008.12 1007.36 1006.64 1006.19 1005.67 1006.14 1005.19 1005.98 1006.42 1006.87 1007.57 1007.53 1007.66 1009.99 1010.38 1010.56 1010.83 1010.73 1011.47 1011.46 1012.23 1012.20 1012.35 1013.15 1013.03 1012.90 1013.35 1013.45 1013.65 1013.87 1014.09 1013.93 1014.08 1014.52 1014.52 1014.57 1014.46 1014.48 1014.07 1013.85 1013.73 1013.43 1013.73
1007.58 1006.60 1005.94 1005.45 1005.29 1006.79 1005.57 1005.37 1006.10 1007.32 1007.86 1007.94 1009.59 1010.43 1010.59 1010.93 1010.81 1011.12 1012.00 1012.33 1013.01 1013.02 1013.07 1013.56 1013.77 1014.02 1013.99 1014.06 1013.90 1013.85 1014.02 1014.20 1014.45 1014.73 1015.07 1014.85 1014.66 1014.18 1013.95 1013.65 1013.75 1013.59 1013.77
1007.68 1006.25 1005.26 1004.96 1004.89 1006.24 1006.85 1006.03 1006.77 1006.95 1006.58 1008.89 1010.54 1010.83 1010.79 1010.53 1010.77 1011.74 1012.02 1012.75 1013.34 1013.50 1013.55 1013.97 1014.21 1014.28 1014.32 1014.23 1014.16 1014.26 1014.29 1014.58 1014.65 1014.75 1015.11 1014.91 1014.52 1014.24 1014.14 1013.79 1013.93 1014.07 1014.20
1007.28 1005.94 1004.98 1004.06 1004.17 1004.49 1005.49 1005.56 1006.18 1006.66 1006.33 1009.60 1010.85 1011.22 1011.01 1011.19 1011.79 1012.12 1012.29 1012.78 1013.34 1013.43 1013.74 1013.92 1014.12 1014.29 1014.51 1014.36 1014.30 1014.49 1014.69 1014.69 1014.69 1014.70 1014.85 1014.93 1014.76 1014.39 1014.42 1014.33 1014.22 1014.23 1014.28
1007.56 1005.78 1004.23 1002.92 1003.32 1003.69 1004.25 1005.70 1006.28 1006.68 1008.06 1009.58 1010.47 1011.13 1011.51 1011.46 1011.91 1012.56 1012.99 1013.35 1013.39 1013.30 1013.53 1013.50 1013.54 1014.07 1014.10 1014.27 1014.68 1014.89 1014.86 1014.89 1014.82 1015.03 1015.19 1015.19 1014.97 1014.87 1014.80 1014.66 1014.35 1014.30 1014.30
Wind_Speed
19 19 16 16 15 16 15 15 14 12 9 4 4 3 4 3 3 4 6 7 7 9 7 4 4 3 3 2 3 2 4 1 2 4 1 3 2 4 5 3 4 3 0
16 17 16 15 17 18 17 15 16 13 10 8 5 3 4 4 3 4 4 6 7 8 7 6 5 6 4 4 4 3 1 2 5 2 2 1 4 3 4 4 4 2 3
20 16 18 18 15 18 18 17 17 16 13 10 5 2 2 2 1 3 3 5 7 9 8 7 6 6 5 5 5 4 4 1 2 4 4 2 5 1 1 5 2 2 1
19 15 16 16 18 19 18 17 16 17 13 13 10 8 6 6 4 4 3 5 9 8 9 8 7 6 4 4 4 3 3 3 3 2 3 2 3 4 3 2 3 4 5
21 19 20 21 18 16 18 16 14 15 14 15 13 10 5 5 3 3 5 5 6 8 10 9 7 5 4 5 5 5 5 4 3 3 3 1 1 2 3 2 3 2 1
21 18 20 15 13 13 14 15 16 14 14 15 13 14 10 7 4 5 4 4 4 5 8 7 6 6 5 6 6 6 4 5 3 3 4 4 3 1 2 2 1 1 1
21 18 17 16 14 17 17 15 16 16 14 15 14 13 12 9 8 7 5 4 3 3 7 6 5 4 5 4 2 1 5 5 4 4 4 4 4 4 3 2 2 2 3
20 18 19 19 19 19 18 18 18 16 15 15 15 13 12 8 6 8 6 5 4 5 4 6 6 7 6 7 7 5 4 6 6 7 5 3 4 4 4 4 5 1 4
12 16 17 17 17 16 20 22 19 17 16 16 13 13 12 13 11 8 5 4 1 3 6 6 7 7 7 8 7 5 3 2 5 6 6 3 3 3 4 4 4 5 3
8 12 12 12 13 15 16 15 16 20 17 16 15 13 14 12 8 4 7 6 5 4 5 6 6 7 7 6 5 4 4 4 6 5 5 2 3 4 3 2 4 4 5
17 14 8 3 8 11 12 15 16 18 16 16 15 13 6 8 9 7 6 6 6 11 10 9 11 11 6 6 7 8 6 8 7 5 5 5 8 5 5 4 5 3 3
16 15 13 13 14 11 7 11 15 16 16 13 8 7 9 11 10 8 8 5 4 6 5 9 7 5 8 7 7 5 5 5 5 4 6 7 5 5 7 6 6 4 2
12 14 12 11 11 10 11 13 10 10 10 7 11 10 11 11 8 4 3 9 6 5 9 8 5 7 3 3 5 5 6 6 5 5 2 6 5 5 4 2 3 3 3
9 11 7 8 11 9 9 8 10 11 4 12 12 11 10 8 6 5 7 5 1 1 4 7 10 13 10 9 8 8 6 5 4 5 7 3 4 2 3 4 3 1 2
7 10 7 8 11 11 5 7 4 5 6 12 12 8 8 8 8 8 8 6 5 7 5 10 7 5 10 4 5 4 4 5 4 5 2 1 1 4 6 3 2 1 2
3 4 4 7 2 5 2 8 9 9 7 9 11 8 8 6 5 5 4 7 8 6 6 5 4 2 4 12 10 7 4 4 5 4 5 4 6 8 10 9 5 4 3
10 8 6 4 2 7 6 6 5 8 8 7 6 5 8 7 5 5 5 6 6 4 5 5 5 4 5 8 8 9 3 4 4 5 4 4 5 7 6 8 7 7 8
9 11 11 7 7 4 4 6 5 6 13 8 6 5 5 6 5 6 5 5 4 4 4 6 7 6 3 8 7 7 4 4 4 4 4 4 6 6 5 5 5 5 4
6 4 4 1 2 3 5 6 7 7 9 12 10 7 5 5 5 6 6 3 5 4 4 5 6 7 4 5 7 6 5 7 7 6 8 8 6 6 8 6 4 4 5
5 2 1 1 2 3 8 10 10 8 9 7 8 8 6 8 7 6 7 4 3 3 3 5 5 8 7 4 7 6 4 6 5 5 5 9 6 7 6 4 3 4 6
4 4 6 6 8 7 5 15 11 9 6 11 11 10 5 6 6 5 4 6 5 5 4 4 4 6 6 4 7 9 5 4 4 4 3 3 7 7 7 5 5 7 4
9 10 7 11 12 7 13 23 9 7 7 11 14 6 6 5 5 8 4 6 5 4 4 3 3 4 5 5 7 10 8 5 4 3 3 4 9 11 10 5 9 8 5
13 12 13 12 10 1 12 10 9 9 8 11 8 7 6 6 5 7 6 5 5 5 5 4 5 5 4 3 8 8 8 6 3 2 4 8 10 10 7 7 7 6 4
15 16 16 12 7 7 4 14 13 9 14 9 6 4 6 6 7 5 5 5 4 4 4 4 5 4 3 3 3 4 4 5 4 4 3 6 6 4 2 4 6 4 3
16 18 16 16 16 12 14 15 14 12 14 8 5 3 4 5 5 4 4 5 2 5 5 4 5 5 3 3 4 4 3 1 2 4 2 4 4 4 4 3 4 3 3
10 17 15 1 9 15 13 15 10 11 10 7 4 4 4 4 5 4 4 14 9 10 10 9 7 2 3 7 7 5 4 4 2 2 2 2 2 1 1 2 1 2 3
Wind_Direction
206 201 195 187 179 180 172 177 175 183 168 146 158 163 198 216 239 243 221 226 217 197 214 222 180 170 149 175 156 167 195 172 220 116 66 4 355 308 310 333 286 240 233
207 202 194 181 180 181 178 177 182 175 180 178 179 169 171 212 208 227 222 208 193 189 201 193 213 181 154 187 213 194 181 140 220 127 71 14 317 281 225 244 228 257 174
201 200 193 189 176 184 183 178 179 180 181 176 154 74 53 357 293 257 262 218 199 194 205 192 200 194 172 197 197 194 163 213 253 221 166 141 234 79 220 251 255 298 231
207 197 195 191 186 188 186 180 173 176 179 169 173 176 180 196 212 218 238 241 201 204 205 208 195 196 182 197 218 148 158 208 182 266 272 56 141 186 327 304 268 173 234
202 193 198 198 191 183 182 181 174 175 174 179 181 184 182 192 208 208 233 236 225 204 210 211 207 171 174 222 211 182 200 208 189 185 213 177 129 96 95 329 330 16 144
200 200 201 194 186 181 185 182 181 182 177 177 179 182 185 190 201 235 235 233 227 229 228 221 207 160 186 193 215 193 191 227 216 208 186 187 183 149 128 121 341 132 7
193 194 186 189 185 186 186 184 186 189 184 186 186 187 187 186 201 217 218 222 226 235 232 213 201 162 195 181 55 87 243 244 232 216 220 188 187 155 138 124 165 277 200
189 192 187 188 191 189 186 185 188 194 193 191 196 195 189 190 192 212 212 223 220 235 238 227 185 211 159 146 158 182 199 258 250 253 241 189 190 169 159 164 141 185 248
180 192 193 192 192 190 191 189 186 196 199 200 195 198 204 202 203 204 199 231 303 273 256 248 206 178 166 180 178 218 198 252 257 250 260 182 204 151 139 152 152 161 182
156 189 187 189 199 198 197 191 188 197 196 201 200 200 201 203 204 70 50 19 334 294 258 237 216 157 156 177 182 218 210 201 257 247 240 93 107 140 143 158 189 198 140
47 31 30 351 212 196 184 193 197 199 199 202 203 201 167 114 110 117 131 144 100 332 285 227 205 165 184 199 195 207 191 208 232 237 188 161 172 196 149 174 213 232 173
75 65 54 51 38 16 302 198 205 202 206 203 192 143 128 128 131 156 180 166 322 71 13 328 283 262 164 188 215 215 190 205 213 180 138 158 174 186 169 195 193 181 188
70 76 59 55 55 58 34 6 338 209 198 139 118 123 135 140 162 171 54 53 67 49 27 32 292 178 246 71 50 87 81 58 35 41 83 167 205 210 171 206 217 183 155
47 54 48 74 74 50 50 47 15 347 101 118 124 127 137 138 137 101 75 70 359 74 69 59 70 59 49 71 57 35 38 41 42 62 60 50 26 226 142 152 173 166 122
134 148 184 162 135 126 150 95 86 50 54 108 123 125 111 107 103 111 126 121 100 128 136 113 102 96 116 102 96 71 17 49 3 36 358 353 155 262 190 150 169 110 83
314 291 307 23 64 142 48 70 86 47 70 103 99 101 107 98 108 140 173 178 152 142 118 108 141 157 126 131 119 103 189 147 132 99 69 85 42 48 86 103 121 94 86
276 279 308 8 8 96 121 115 103 105 102 116 119 125 128 142 159 145 167 116 108 131 119 125 103 83 112 108 139 160 159 147 154 106 88 70 61 52 38 42 57 81 87
314 358 360 1 350 66 105 139 162 157 136 146 144 132 130 126 140 130 122 110 120 110 124 125 125 131 127 121 108 112 120 86 64 77 72 65 57 34 49 54 55 25 12
332 321 326 247 324 156 166 164 197 175 137 143 144 134 129 151 139 121 117 102 101 104 111 122 130 120 116 128 117 105 73 77 54 44 73 84 74 44 55 60 42 350 308
4 4 263 291 41 173 179 195 200 185 149 133 134 134 170 167 130 124 111 82 83 87 86 100 120 133 135 134 107 107 103 75 82 77 70 68 73 27 21 31 346 318 286
234 156 122 131 155 116 6 248 165 167 144 130 127 103 133 122 118 109 102 113 103 117 94 107 137 142 141 130 93 84 80 94 84 92 39 8 356 335 306 259 222 219 226
241 236 225 203 202 172 40 241 154 139 138 114 99 121 128 118 124 103 70 68 70 68 75 79 62 94 119 123 93 86 90 79 83 55 16 339 327 321 311 300 257 268 277
276 263 258 253 239 120 138 138 154 138 124 99 120 147 129 130 103 103 109 93 76 68 62 80 85 81 88 96 93 82 65 61 77 50 337 312 305 301 310 293 318 44 43
273 270 272 267 254 131 280 153 149 144 123 104 130 139 135 114 105 98 104 114 125 115 107 100 95 101 101 102 69 67 71 61 60 353 331 305 294 310 302 54 65 71 67
281 271 264 257 259 237 193 145 141 133 102 123 131 117 98 105 112 96 136 136 107 130 144 154 143 132 141 208 151 133 121 126 313 319 47 3 3 22 23 23 56 48 30
347 26 350 227 143 104 106 96 89 104 107 110 120 130 145 104 97 112 84 49 99 101 118 159 154 189 226 160 144 125 145 150 45 67 6 351 311 20 3 339 8 13 24